Location: Unspecified
(0.0000°N, 0.0000°E)
Time: 10:28:33
(UTC+00:00)

Transit 2A - Visible Passes

Search period start: 24 September 2023 00:00
Search period end: 04 October 2023 00:00
Orbit: 596 x 958 km, 66.7° (Epoch: 22 September)

Date Brightness Start Highest point End Pass type
(mag) Time Alt. Az. Time Alt. Az. Time Alt. Az.
24 Sep 7.1 18:18:05 10° NE 18:20:34 15° ENE 18:23:04 10° ESE visible
24 Sep 7.9 20:00:10 10° WNW 20:03:21 20° WSW 20:04:33 18° SW visible
25 Sep 6.9 19:24:36 10° NW 19:28:35 37° WSW 19:32:41 10° S visible
26 Sep 5.7 18:49:34 10° NNW 18:53:50 74° WSW 18:58:15 10° SSE visible
27 Sep 5.6 18:14:55 10° N 18:19:06 55° ENE 18:23:26 10° SSE visible
28 Sep 9.3 05:07:01 10° SE 05:10:36 16° ESE 05:14:09 10° ENE visible
28 Sep 8.9 19:26:27 10° W 19:27:15 10° WSW 19:28:02 10° WSW visible
29 Sep 8.4 18:49:17 10° WNW 18:52:26 20° WSW 18:55:41 10° SSW visible
30 Sep 7.3 18:13:42 10° NW 18:17:39 36° WSW 18:21:47 10° S visible
01 Oct 7.9 05:03:26 10° S 05:09:21 41° ESE 05:15:07 10° NE visible
02 Oct 8.6 04:29:25 10° SSE 04:34:33 26° ESE 04:39:35 10° NE visible
03 Oct 9.2 03:56:04 10° SSE 03:59:45 16° ESE 04:03:21 10° ENE visible
03 Oct 9.3 18:15:42 10° WSW 18:16:18 10° WSW 18:16:55 10° WSW visible
